Time,TemperatureF,DewpointF,PressureIn,WindDirection,WindDirectionDegrees,WindSpeedMPH,WindSpeedGustMPH,Humidity,HourlyPrecipIn,Conditions,Clouds,dailyrainin,SoftwareType,DateUTC
2013-02-03 00:02:00,37.4,36.6,28.82,SE,146,0.0,0.0,97,0.00,,---,0.00,VWS V13.00,2013-02-03 09:02:00,
2013-02-03 00:07:00,37.4,36.6,28.82,SSE,168,0.0,0.0,97,0.00,,---,0.00,VWS V13.00,2013-02-03 09:07:00,
2013-02-03 00:12:00,37.4,36.6,28.82,SSW,200,0.0,0.0,97,0.00,,---,0.00,VWS V13.00,2013-02-03 09:12:00,
2013-02-03 00:17:00,37.2,36.5,28.82,SSW,200,0.0,0.0,97,0.00,,---,0.00,VWS V13.00,2013-02-03 09:17:00,
2013-02-03 00:22:00,37.0,36.3,28.82,South,186,0.0,0.0,97,0.00,,---,0.00,VWS V13.00,2013-02-03 09:22:00,
2013-02-03 00:27:00,37.0,36.3,28.82,SSW,211,0.0,0.0,97,0.00,,---,0.00,VWS V13.00,2013-02-03 09:27:00,
2013-02-03 00:32:00,37.0,36.3,28.82,SSW,211,0.0,0.0,97,0.00,,---,0.00,VWS V13.00,2013-02-03 09:32:00,
2013-02-03 00:37:00,36.9,36.1,28.82,SSW,212,0.0,0.0,97,0.00,,---,0.00,VWS V13.00,2013-02-03 09:37:00,
2013-02-03 00:42:00,36.9,36.1,28.82,SSW,212,0.0,0.0,97,0.00,,---,0.00,VWS V13.00,2013-02-03 09:42:00,
2013-02-03 00:47:00,36.5,35.7,28.82,SSW,212,0.0,0.0,97,0.00,,---,0.00,VWS V13.00,2013-02-03 09:47:00,
2013-02-03 00:52:00,36.5,35.7,28.82,South,188,0.0,0.0,97,0.00,,---,0.00,VWS V13.00,2013-02-03 09:52:00,
2013-02-03 00:57:00,36.5,35.7,28.82,South,188,0.0,0.0,97,0.00,,---,0.00,VWS V13.00,2013-02-03 09:57:00,
2013-02-03 01:02:00,36.5,35.7,28.82,SSW,198,0.0,0.0,97,0.00,,---,0.00,VWS V13.00,2013-02-03 10:02:00,
2013-02-03 01:07:00,36.5,35.7,28.85,SW,222,0.0,0.0,97,0.00,,---,0.00,VWS V13.00,2013-02-03 10:07:00,
2013-02-03 01:12:00,36.3,35.5,28.85,SSE,158,0.0,0.0,97,0.00,,---,0.00,VWS V13.00,2013-02-03 10:12:00,
2013-02-03 01:17:00,36.3,35.5,28.85,SSW,200,0.0,0.0,97,0.00,,---,0.00,VWS V13.00,2013-02-03 10:17:00,
2013-02-03 01:22:00,36.1,35.4,28.85,SSW,200,0.0,0.0,97,0.00,,---,0.00,VWS V13.00,2013-02-03 10:22:00,
2013-02-03 01:27:00,36.1,35.4,28.85,SSW,212,0.0,0.0,97,0.00,,---,0.00,VWS V13.00,2013-02-03 10:27:00,
2013-02-03 01:32:00,36.3,35.5,28.85,SSW,211,0.0,0.0,97,0.00,,---,0.00,VWS V13.00,2013-02-03 10:32:00,
2013-02-03 01:37:00,36.3,35.5,28.85,South,190,0.0,0.0,97,0.00,,---,0.00,VWS V13.00,2013-02-03 10:37:00,
2013-02-03 01:42:00,36.5,35.7,28.85,SW,217,0.0,0.0,97,0.00,,---,0.00,VWS V13.00,2013-02-03 10:42:00,
2013-02-03 01:47:00,36.5,35.7,28.85,SSW,199,0.0,0.0,97,0.00,,---,0.00,VWS V13.00,2013-02-03 10:47:00,
2013-02-03 01:52:00,36.7,35.9,28.85,SSW,206,0.0,0.0,97,0.00,,---,0.00,VWS V13.00,2013-02-03 10:52:00,
2013-02-03 01:57:00,36.9,36.1,28.85,SW,220,0.0,0.0,97,0.00,,---,0.00,VWS V13.00,2013-02-03 10:57:00,
2013-02-03 02:02:00,36.9,36.1,28.85,SW,235,0.0,0.0,97,0.00,,---,0.00,VWS V13.00,2013-02-03 11:02:00,
2013-02-03 02:07:00,36.9,36.1,28.85,WSW,244,0.0,0.0,97,0.00,,---,0.00,VWS V13.00,2013-02-03 11:07:00,
2013-02-03 02:12:00,36.9,36.1,28.85,WSW,248,0.0,0.0,97,0.00,,---,0.00,VWS V13.00,2013-02-03 11:12:00,
2013-02-03 02:17:00,36.9,36.1,28.85,SSW,204,6.3,6.3,97,0.00,,---,0.00,VWS V13.00,2013-02-03 11:17:00,
2013-02-03 02:22:00,36.9,36.1,28.85,SW,217,0.0,0.0,97,0.00,,---,0.00,VWS V13.00,2013-02-03 11:22:00,
2013-02-03 02:27:00,36.9,36.1,28.85,SW,230,0.0,0.0,97,0.00,,---,0.00,VWS V13.00,2013-02-03 11:27:00,
2013-02-03 02:32:00,37.0,36.3,28.85,SSE,167,0.0,0.0,97,0.00,,---,0.00,VWS V13.00,2013-02-03 11:32:00,
2013-02-03 02:37:00,37.0,36.3,28.85,WSW,244,0.0,0.0,97,0.00,,---,0.00,VWS V13.00,2013-02-03 11:37:00,
2013-02-03 02:42:00,37.0,36.3,28.85,SSW,205,0.0,0.0,97,0.00,,---,0.00,VWS V13.00,2013-02-03 11:42:00,
2013-02-03 02:47:00,37.0,36.3,28.85,SW,221,0.0,0.0,97,0.00,,---,0.00,VWS V13.00,2013-02-03 11:47:00,
2013-02-03 02:52:00,37.0,36.3,28.85,SW,224,0.0,0.0,97,0.00,,---,0.00,VWS V13.00,2013-02-03 11:52:00,
2013-02-03 02:57:00,37.0,36.0,28.85,WSW,242,0.0,0.0,96,0.00,,---,0.00,VWS V13.00,2013-02-03 11:57:00,
2013-02-03 03:02:00,37.0,36.0,28.85,West,259,0.0,0.0,96,0.00,,---,0.00,VWS V13.00,2013-02-03 12:02:00,
2013-02-03 03:07:00,37.0,36.0,28.88,SW,227,0.0,0.0,96,0.00,,---,0.00,VWS V13.00,2013-02-03 12:07:00,
2013-02-03 03:12:00,37.0,36.0,28.88,SW,219,0.0,0.0,96,0.00,,---,0.00,VWS V13.00,2013-02-03 12:12:00,
2013-02-03 03:17:00,37.0,36.0,28.88,SW,230,0.0,0.0,96,0.00,,---,0.00,VWS V13.00,2013-02-03 12:17:00,
2013-02-03 03:22:00,37.0,36.0,28.88,WSW,244,0.0,0.0,96,0.00,,---,0.00,VWS V13.00,2013-02-03 12:22:00,
2013-02-03 03:27:00,37.0,35.7,28.88,West,281,0.0,0.0,95,0.00,,---,0.00,VWS V13.00,2013-02-03 12:27:00,
2013-02-03 03:32:00,36.9,35.6,28.88,SW,221,0.0,0.0,95,0.00,,---,0.00,VWS V13.00,2013-02-03 12:32:00,
2013-02-03 03:37:00,36.9,35.6,28.88,SW,218,0.0,0.0,95,0.00,,---,0.00,VWS V13.00,2013-02-03 12:37:00,
2013-02-03 03:42:00,36.9,35.6,28.88,West,260,0.0,0.0,95,0.00,,---,0.00,VWS V13.00,2013-02-03 12:42:00,
2013-02-03 03:47:00,36.9,35.6,28.88,SW,232,0.0,0.0,95,0.00,,---,0.00,VWS V13.00,2013-02-03 12:47:00,
2013-02-03 03:52:00,36.9,35.6,28.88,WSW,256,0.0,0.0,95,0.00,,---,0.00,VWS V13.00,2013-02-03 12:52:00,
2013-02-03 03:57:00,36.9,35.3,28.88,NW,322,0.0,0.0,94,0.00,,---,0.00,VWS V13.00,2013-02-03 12:57:00,
2013-02-03 04:02:00,36.9,35.3,28.88,WSW,245,0.0,0.0,94,0.00,,---,0.00,VWS V13.00,2013-02-03 13:02:00,
2013-02-03 04:07:00,36.9,35.3,28.88,WNW,285,0.0,0.0,94,0.00,,---,0.00,VWS V13.00,2013-02-03 13:07:00,
2013-02-03 04:12:00,36.7,35.1,28.88,SW,235,0.0,0.0,94,0.00,,---,0.00,VWS V13.00,2013-02-03 13:12:00,
2013-02-03 04:17:00,36.7,35.1,28.88,SW,235,0.0,0.0,94,0.00,,---,0.00,VWS V13.00,2013-02-03 13:17:00,
2013-02-03 04:22:00,36.5,34.9,28.88,SW,235,0.0,0.0,94,0.00,,---,0.00,VWS V13.00,2013-02-03 13:22:00,
2013-02-03 04:27:00,36.3,34.8,28.88,SW,235,0.0,0.0,94,0.00,,---,0.00,VWS V13.00,2013-02-03 13:27:00,
2013-02-03 04:32:00,36.3,34.8,28.88,SW,235,0.0,0.0,94,0.00,,---,0.00,VWS V13.00,2013-02-03 13:32:00,
2013-02-03 04:37:00,36.1,34.6,28.91,SW,235,0.0,0.0,94,0.00,,---,0.00,VWS V13.00,2013-02-03 13:37:00,
2013-02-03 04:42:00,36.1,34.6,28.91,SW,235,0.0,0.0,94,0.00,,---,0.00,VWS V13.00,2013-02-03 13:42:00,
2013-02-03 04:47:00,36.1,34.6,28.91,SW,235,0.0,0.0,94,0.00,,---,0.00,VWS V13.00,2013-02-03 13:47:00,
2013-02-03 04:52:00,35.8,34.2,28.91,SW,235,0.0,0.0,94,0.00,,---,0.00,VWS V13.00,2013-02-03 13:52:00,
2013-02-03 04:57:00,35.8,34.2,28.91,SW,235,0.0,0.0,94,0.00,,---,0.00,VWS V13.00,2013-02-03 13:57:00,
2013-02-03 05:02:00,35.8,34.2,28.91,SSW,207,0.0,0.0,94,0.00,,---,0.00,VWS V13.00,2013-02-03 14:02:00,
2013-02-03 05:07:00,35.8,34.2,28.91,SW,225,0.0,0.0,94,0.00,,---,0.00,VWS V13.00,2013-02-03 14:07:00,
2013-02-03 05:12:00,35.8,34.2,28.91,SW,226,0.0,0.0,94,0.00,,---,0.00,VWS V13.00,2013-02-03 14:12:00,
2013-02-03 05:17:00,35.6,34.0,28.91,SW,232,0.0,0.0,94,0.00,,---,0.00,VWS V13.00,2013-02-03 14:17:00,
2013-02-03 05:22:00,35.6,34.0,28.91,SW,232,0.0,0.0,94,0.00,,---,0.00,VWS V13.00,2013-02-03 14:22:00,
2013-02-03 05:27:00,35.8,34.2,28.91,SW,226,0.0,0.0,94,0.00,,---,0.00,VWS V13.00,2013-02-03 14:27:00,
2013-02-03 05:32:00,35.8,34.2,28.91,SW,220,0.0,0.0,94,0.00,,---,0.00,VWS V13.00,2013-02-03 14:32:00,
2013-02-03 05:37:00,35.8,34.2,28.91,SW,220,0.0,0.0,94,0.00,,---,0.00,VWS V13.00,2013-02-03 14:37:00,
2013-02-03 05:42:00,35.8,34.2,28.91,SW,219,0.0,0.0,94,0.00,,---,0.00,VWS V13.00,2013-02-03 14:42:00,
2013-02-03 05:47:00,36.0,34.7,28.91,SW,220,0.0,0.0,95,0.00,,---,0.00,VWS V13.00,2013-02-03 14:47:00,
2013-02-03 05:52:00,36.1,34.8,28.91,SW,235,0.0,0.0,95,0.00,,---,0.00,VWS V13.00,2013-02-03 14:52:00,
2013-02-03 05:57:00,36.1,34.8,28.91,SW,231,0.0,0.0,95,0.00,,---,0.00,VWS V13.00,2013-02-03 14:57:00,
2013-02-03 06:02:00,36.1,34.8,28.91,SW,235,0.0,0.0,95,0.00,,---,0.00,VWS V13.00,2013-02-03 15:02:00,
2013-02-03 06:07:00,36.1,34.8,28.91,SW,233,0.0,0.0,95,0.00,,---,0.00,VWS V13.00,2013-02-03 15:07:00,
2013-02-03 06:12:00,36.1,34.8,28.91,SW,228,0.0,0.0,95,0.00,,---,0.00,VWS V13.00,2013-02-03 15:12:00,
2013-02-03 06:17:00,35.8,34.2,28.91,SW,223,0.0,0.0,94,0.00,,---,0.00,VWS V13.00,2013-02-03 15:17:00,
2013-02-03 06:22:00,35.6,34.0,28.91,WSW,237,0.0,0.0,94,0.00,,---,0.00,VWS V13.00,2013-02-03 15:22:00,
2013-02-03 06:27:00,35.6,34.0,28.91,West,278,0.0,0.0,94,0.00,,---,0.00,VWS V13.00,2013-02-03 15:27:00,
2013-02-03 06:32:00,35.6,34.0,28.91,WSW,237,0.0,0.0,94,0.00,,---,0.00,VWS V13.00,2013-02-03 15:32:00,
2013-02-03 06:37:00,35.6,34.0,28.94,WSW,239,0.0,0.0,94,0.00,,---,0.00,VWS V13.00,2013-02-03 15:37:00,
2013-02-03 06:41:00,35.2,34.0,28.94,SSW,211,0.0,0.0,95,0.00,,---,0.00,VWS V13.00,2013-02-03 15:41:00,
2013-02-03 06:46:00,35.1,33.8,28.94,SW,236,0.0,0.0,95,0.00,,---,0.00,VWS V13.00,2013-02-03 15:46:00,
2013-02-03 06:51:00,35.1,33.8,28.94,SW,231,0.0,0.0,95,0.00,,---,0.00,VWS V13.00,2013-02-03 15:51:00,
2013-02-03 06:56:00,34.7,33.4,28.94,SW,231,0.0,0.0,95,0.00,,---,0.00,VWS V13.00,2013-02-03 15:56:00,
2013-02-03 07:01:00,34.5,33.0,28.94,SW,231,0.0,0.0,94,0.00,,---,0.00,VWS V13.00,2013-02-03 16:01:00,
2013-02-03 07:06:00,34.3,32.8,28.94,WSW,241,0.0,0.0,94,0.00,,---,0.00,VWS V13.00,2013-02-03 16:06:00,
2013-02-03 07:11:00,34.2,32.6,28.94,WSW,241,0.0,0.0,94,0.00,,---,0.00,VWS V13.00,2013-02-03 16:11:00,
2013-02-03 07:16:00,34.2,32.6,28.94,WSW,241,0.0,0.0,94,0.00,,---,0.00,VWS V13.00,2013-02-03 16:16:00,
2013-02-03 07:21:00,34.0,32.4,28.94,WSW,241,0.0,0.0,94,0.00,,---,0.00,VWS V13.00,2013-02-03 16:21:00,
2013-02-03 07:26:00,33.8,32.3,28.94,WSW,245,0.0,0.0,94,0.00,,---,0.00,VWS V13.00,2013-02-03 16:26:00,
2013-02-03 07:31:00,33.6,32.3,28.94,WSW,245,0.0,0.0,95,0.00,,---,0.00,VWS V13.00,2013-02-03 16:31:00,
2013-02-03 07:36:00,33.6,32.3,28.94,WSW,241,0.0,0.0,95,0.00,,---,0.00,VWS V13.00,2013-02-03 16:36:00,
2013-02-03 07:41:00,33.8,32.3,28.94,SW,225,0.0,0.0,94,0.00,,---,0.00,VWS V13.00,2013-02-03 16:41:00,
2013-02-03 07:46:00,33.8,32.5,28.94,SW,236,0.0,0.0,95,0.00,,---,0.00,VWS V13.00,2013-02-03 16:46:00,
2013-02-03 07:51:00,33.8,32.5,28.97,WSW,243,0.0,0.0,95,0.00,,---,0.00,VWS V13.00,2013-02-03 16:51:00,
2013-02-03 07:56:00,33.8,32.5,28.97,WSW,241,0.0,0.0,95,0.00,,---,0.00,VWS V13.00,2013-02-03 16:56:00,
2013-02-03 08:01:00,33.8,32.5,28.97,SW,235,0.0,0.0,95,0.00,,---,0.00,VWS V13.00,2013-02-03 17:01:00,
2013-02-03 08:06:00,33.8,32.5,28.97,SW,227,0.0,0.0,95,0.00,,---,0.00,VWS V13.00,2013-02-03 17:06:00,
2013-02-03 08:11:00,33.8,32.5,28.97,SW,233,0.0,0.0,95,0.00,,---,0.00,VWS V13.00,2013-02-03 17:11:00,
2013-02-03 08:16:00,33.8,32.5,28.97,SW,232,0.0,0.0,95,0.00,,---,0.00,VWS V13.00,2013-02-03 17:16:00,
2013-02-03 08:21:00,33.8,32.5,28.97,SW,232,0.0,0.0,95,0.00,,---,0.00,VWS V13.00,2013-02-03 17:21:00,
2013-02-03 08:26:00,33.8,32.5,28.97,SW,236,0.0,0.0,95,0.00,,---,0.00,VWS V13.00,2013-02-03 17:26:00,
2013-02-03 08:31:00,33.6,32.3,28.97,WSW,247,0.0,0.0,95,0.00,,---,0.00,VWS V13.00,2013-02-03 17:31:00,
2013-02-03 08:36:00,33.6,32.3,28.97,WSW,247,0.0,0.0,95,0.00,,---,0.00,VWS V13.00,2013-02-03 17:36:00,
2013-02-03 08:41:00,33.6,32.3,28.97,WSW,238,0.0,0.0,95,0.00,,---,0.00,VWS V13.00,2013-02-03 17:41:00,
2013-02-03 08:46:00,33.6,32.3,28.97,WSW,237,0.0,0.0,95,0.00,,---,0.00,VWS V13.00,2013-02-03 17:46:00,
2013-02-03 08:51:00,33.6,32.3,28.97,WSW,237,0.0,0.0,95,0.00,,---,0.00,VWS V13.00,2013-02-03 17:51:00,
2013-02-03 08:56:00,33.4,32.2,28.97,WSW,239,0.0,0.0,95,0.00,,---,0.00,VWS V13.00,2013-02-03 17:56:00,
2013-02-03 09:01:00,33.4,32.2,28.97,SSW,208,0.0,0.0,95,0.00,,---,0.00,VWS V13.00,2013-02-03 18:01:00,
2013-02-03 09:06:00,33.8,32.5,28.97,SW,218,0.0,0.0,95,0.00,,---,0.00,VWS V13.00,2013-02-03 18:06:00,
2013-02-03 09:11:00,33.8,32.5,28.97,WSW,247,0.0,0.0,95,0.00,,---,0.00,VWS V13.00,2013-02-03 18:11:00,
2013-02-03 09:16:00,33.8,32.5,29.00,WSW,247,0.0,0.0,95,0.00,,---,0.00,VWS V13.00,2013-02-03 18:16:00,
2013-02-03 09:21:00,33.8,32.5,29.00,SSW,212,0.0,0.0,95,0.00,,---,0.00,VWS V13.00,2013-02-03 18:21:00,
2013-02-03 09:26:00,34.3,33.3,29.00,SSW,192,0.0,0.0,96,0.00,,---,0.00,VWS V13.00,2013-02-03 18:26:00,
2013-02-03 09:31:00,34.5,33.5,29.00,SSW,192,0.0,0.0,96,0.00,,---,0.00,VWS V13.00,2013-02-03 18:31:00,
2013-02-03 09:36:00,34.5,33.5,29.00,SW,234,0.0,0.0,96,0.00,,---,0.00,VWS V13.00,2013-02-03 18:36:00,
2013-02-03 09:41:00,34.5,33.5,29.00,WSW,246,0.0,0.0,96,0.00,,---,0.00,VWS V13.00,2013-02-03 18:41:00,
2013-02-03 09:46:00,34.5,33.5,29.00,SSW,202,0.0,0.0,96,0.00,,---,0.00,VWS V13.00,2013-02-03 18:46:00,
2013-02-03 09:51:00,34.7,33.7,29.00,WSW,237,0.0,0.0,96,0.00,,---,0.00,VWS V13.00,2013-02-03 18:51:00,
2013-02-03 09:56:00,34.9,33.9,29.00,WSW,240,0.0,0.0,96,0.00,,---,0.00,VWS V13.00,2013-02-03 18:56:00,
2013-02-03 10:01:00,34.9,33.9,29.00,South,184,0.0,0.0,96,0.00,,---,0.00,VWS V13.00,2013-02-03 19:01:00,
2013-02-03 10:06:00,35.1,34.0,29.00,SW,231,0.0,0.0,96,0.00,,---,0.00,VWS V13.00,2013-02-03 19:06:00,
2013-02-03 10:11:00,35.1,34.0,29.00,SW,214,0.0,0.0,96,0.00,,---,0.00,VWS V13.00,2013-02-03 19:11:00,
2013-02-03 10:16:00,35.1,34.0,29.00,SW,227,0.0,0.0,96,0.00,,---,0.00,VWS V13.00,2013-02-03 19:16:00,
2013-02-03 10:21:00,35.1,34.0,29.00,WSW,241,0.0,0.0,96,0.00,,---,0.00,VWS V13.00,2013-02-03 19:21:00,
2013-02-03 10:26:00,35.4,34.4,29.00,WSW,250,0.0,0.0,96,0.00,,---,0.00,VWS V13.00,2013-02-03 19:26:00,
2013-02-03 10:31:00,35.6,34.6,29.00,South,189,0.0,0.0,96,0.00,,---,0.00,VWS V13.00,2013-02-03 19:31:00,
2013-02-03 10:36:00,35.6,34.6,29.00,SW,223,0.0,0.0,96,0.00,,---,0.00,VWS V13.00,2013-02-03 19:36:00,
2013-02-03 10:41:00,35.6,34.6,29.00,WSW,239,0.0,0.0,96,0.00,,---,0.00,VWS V13.00,2013-02-03 19:41:00,
2013-02-03 10:46:00,35.6,34.6,29.00,West,261,0.0,0.0,96,0.00,,---,0.00,VWS V13.00,2013-02-03 19:46:00,
2013-02-03 10:51:00,35.8,34.5,29.00,West,261,0.0,0.0,95,0.00,,---,0.00,VWS V13.00,2013-02-03 19:51:00,
2013-02-03 10:56:00,35.8,34.5,29.00,SSW,195,0.0,0.0,95,0.00,,---,0.00,VWS V13.00,2013-02-03 19:56:00,
2013-02-03 11:01:00,36.1,34.8,29.00,West,260,0.0,0.0,95,0.00,,---,0.00,VWS V13.00,2013-02-03 20:01:00,
2013-02-03 11:06:00,36.1,34.8,29.00,SW,233,0.0,0.0,95,0.00,,---,0.00,VWS V13.00,2013-02-03 20:06:00,
2013-02-03 11:11:00,36.1,34.8,29.03,SW,223,0.0,0.0,95,0.00,,---,0.00,VWS V13.00,2013-02-03 20:11:00,
2013-02-03 11:16:00,36.3,35.0,29.03,SW,235,0.0,0.0,95,0.00,,---,0.00,VWS V13.00,2013-02-03 20:16:00,
2013-02-03 11:21:00,36.5,35.2,29.03,SSW,209,0.0,0.0,95,0.00,,---,0.00,VWS V13.00,2013-02-03 20:21:00,
2013-02-03 11:26:00,36.5,35.2,29.03,SSW,211,0.0,0.0,95,0.00,,---,0.00,VWS V13.00,2013-02-03 20:26:00,
2013-02-03 11:31:00,36.5,35.2,29.03,WSW,240,0.0,0.0,95,0.00,,---,0.00,VWS V13.00,2013-02-03 20:31:00,
2013-02-03 11:36:00,36.5,35.2,29.03,SSW,211,0.0,0.0,95,0.00,,---,0.00,VWS V13.00,2013-02-03 20:36:00,
2013-02-03 11:41:00,36.5,35.2,29.03,SW,236,0.0,0.0,95,0.00,,---,0.00,VWS V13.00,2013-02-03 20:41:00,
2013-02-03 11:46:00,36.5,34.9,29.03,WSW,240,0.0,0.0,94,0.00,,---,0.00,VWS V13.00,2013-02-03 20:46:00,
2013-02-03 11:51:00,36.9,35.3,29.03,SW,231,0.0,0.0,94,0.00,,---,0.00,VWS V13.00,2013-02-03 20:51:00,
2013-02-03 11:56:00,36.9,35.3,29.03,SW,229,0.0,0.0,94,0.00,,---,0.00,VWS V13.00,2013-02-03 20:56:00,
2013-02-03 12:01:00,36.9,35.3,29.03,SW,218,0.0,0.0,94,0.00,,---,0.00,VWS V13.00,2013-02-03 21:01:00,
2013-02-03 12:06:00,36.9,35.3,29.03,WSW,239,0.0,0.0,94,0.00,,---,0.00,VWS V13.00,2013-02-03 21:06:00,
2013-02-03 12:11:00,37.9,35.8,29.03,WSW,239,0.0,0.0,92,0.00,,---,0.00,VWS V13.00,2013-02-03 21:11:00,
2013-02-03 12:16:00,38.3,35.6,29.03,West,262,0.0,0.0,90,0.00,,---,0.00,VWS V13.00,2013-02-03 21:16:00,
2013-02-03 12:21:00,38.3,35.6,29.03,South,170,0.0,0.0,90,0.00,,---,0.00,VWS V13.00,2013-02-03 21:21:00,
2013-02-03 12:26:00,38.5,35.5,29.03,SSW,201,0.0,0.0,89,0.00,,---,0.00,VWS V13.00,2013-02-03 21:26:00,
2013-02-03 12:31:00,38.7,35.4,29.03,NW,305,0.0,0.0,88,0.00,,---,0.00,VWS V13.00,2013-02-03 21:31:00,
2013-02-03 12:36:00,38.7,35.1,29.03,West,274,0.0,0.0,87,0.00,,---,0.00,VWS V13.00,2013-02-03 21:36:00,
2013-02-03 12:41:00,38.7,35.1,29.03,SW,236,0.0,0.0,87,0.00,,---,0.00,VWS V13.00,2013-02-03 21:41:00,
2013-02-03 12:46:00,38.8,35.0,29.03,SW,231,0.0,0.0,86,0.00,,---,0.00,VWS V13.00,2013-02-03 21:46:00,
2013-02-03 12:51:00,38.8,34.7,29.03,SW,231,0.0,0.0,85,0.00,,---,0.00,VWS V13.00,2013-02-03 21:51:00,
2013-02-03 12:56:00,38.7,34.5,29.03,SW,218,0.0,0.0,85,0.00,,---,0.00,VWS V13.00,2013-02-03 21:56:00,
2013-02-03 13:01:00,38.7,34.5,29.03,SW,236,0.0,0.0,85,0.00,,---,0.00,VWS V13.00,2013-02-03 22:01:00,
2013-02-03 13:06:00,38.7,34.5,29.03,West,262,0.0,0.0,85,0.00,,---,0.00,VWS V13.00,2013-02-03 22:06:00,
2013-02-03 13:11:00,38.7,34.5,29.03,WSW,252,0.0,0.0,85,0.00,,---,0.00,VWS V13.00,2013-02-03 22:11:00,
2013-02-03 13:16:00,38.7,34.5,29.03,WSW,252,0.0,0.0,85,0.00,,---,0.00,VWS V13.00,2013-02-03 22:16:00,
2013-02-03 13:21:00,38.8,34.7,29.06,WSW,252,0.0,0.0,85,0.00,,---,0.00,VWS V13.00,2013-02-03 22:21:00,
2013-02-03 13:26:00,38.8,34.7,29.06,SW,230,0.0,0.0,85,0.00,,---,0.00,VWS V13.00,2013-02-03 22:26:00,
2013-02-03 13:31:00,38.8,34.7,29.06,SW,230,0.0,0.0,85,0.00,,---,0.00,VWS V13.00,2013-02-03 22:31:00,
2013-02-03 13:36:00,39.0,34.9,29.06,SSW,200,0.0,0.0,85,0.00,,---,0.00,VWS V13.00,2013-02-03 22:36:00,
2013-02-03 13:41:00,39.0,34.9,29.06,SSW,200,0.0,0.0,85,0.00,,---,0.00,VWS V13.00,2013-02-03 22:41:00,
2013-02-03 13:46:00,39.4,35.2,29.06,SSW,200,0.0,0.0,85,0.00,,---,0.00,VWS V13.00,2013-02-03 22:46:00,
2013-02-03 13:51:00,39.7,35.6,29.06,WSW,243,0.0,0.0,85,0.00,,---,0.00,VWS V13.00,2013-02-03 22:51:00,
2013-02-03 13:56:00,39.7,35.6,29.06,SW,225,0.0,0.0,85,0.00,,---,0.00,VWS V13.00,2013-02-03 22:56:00,
2013-02-03 14:01:00,39.9,35.2,29.06,SW,233,0.0,0.0,83,0.00,,---,0.00,VWS V13.00,2013-02-03 23:01:00,
2013-02-03 14:06:00,39.9,34.9,29.06,SW,233,0.0,0.0,82,0.00,,---,0.00,VWS V13.00,2013-02-03 23:06:00,
2013-02-03 14:11:00,39.9,34.6,29.06,SSW,207,0.0,0.0,81,0.00,,---,0.00,VWS V13.00,2013-02-03 23:11:00,
2013-02-03 14:16:00,39.9,34.6,29.06,SSW,198,0.0,0.0,81,0.00,,---,0.00,VWS V13.00,2013-02-03 23:16:00,
2013-02-03 14:21:00,39.9,34.6,29.06,SSW,198,0.0,0.0,81,0.00,,---,0.00,VWS V13.00,2013-02-03 23:21:00,
2013-02-03 14:26:00,39.9,34.6,29.06,SW,227,0.0,0.0,81,0.00,,---,0.00,VWS V13.00,2013-02-03 23:26:00,
2013-02-03 14:31:00,40.6,35.6,29.06,SW,227,0.0,0.0,82,0.00,,---,0.00,VWS V13.00,2013-02-03 23:31:00,
2013-02-03 14:36:00,40.6,35.6,29.06,SSW,208,0.0,0.0,82,0.00,,---,0.00,VWS V13.00,2013-02-03 23:36:00,
2013-02-03 14:41:00,40.3,34.6,29.06,SSW,207,0.0,0.0,80,0.00,,---,0.00,VWS V13.00,2013-02-03 23:41:00,
2013-02-03 14:46:00,40.3,34.6,29.06,SSW,207,0.0,0.0,80,0.00,,---,0.00,VWS V13.00,2013-02-03 23:46:00,
2013-02-03 14:51:00,40.3,34.6,29.06,SSW,211,0.0,0.0,80,0.00,,---,0.00,VWS V13.00,2013-02-03 23:51:00,
2013-02-03 14:56:00,40.3,34.3,29.06,SSW,211,0.0,0.0,79,0.00,,---,0.00,VWS V13.00,2013-02-03 23:56:00,
2013-02-03 15:01:00,40.3,34.3,29.06,SSW,211,0.0,0.0,79,0.00,,---,0.00,VWS V13.00,2013-02-04 00:01:00,
2013-02-03 15:06:00,39.9,33.6,29.06,SSW,192,0.0,0.0,78,0.00,,---,0.00,VWS V13.00,2013-02-04 00:06:00,
2013-02-03 15:11:00,39.9,33.6,29.06,SSW,192,0.0,0.0,78,0.00,,---,0.00,VWS V13.00,2013-02-04 00:11:00,
2013-02-03 15:16:00,39.9,33.6,29.06,SW,231,4.9,4.9,78,0.00,,---,0.00,VWS V13.00,2013-02-04 00:16:00,
2013-02-03 15:21:00,39.9,34.0,29.06,SW,221,0.0,0.0,79,0.00,,---,0.00,VWS V13.00,2013-02-04 00:21:00,
2013-02-03 15:26:00,39.9,34.0,29.06,SW,221,0.0,0.0,79,0.00,,---,0.00,VWS V13.00,2013-02-04 00:26:00,
2013-02-03 15:31:00,39.9,33.6,29.06,SSW,209,0.0,0.0,78,0.00,,---,0.00,VWS V13.00,2013-02-04 00:31:00,
2013-02-03 15:36:00,39.9,33.6,29.06,SSW,209,0.0,0.0,78,0.00,,---,0.00,VWS V13.00,2013-02-04 00:36:00,
2013-02-03 15:41:00,39.7,33.5,29.06,SSW,209,0.0,0.0,78,0.00,,---,0.00,VWS V13.00,2013-02-04 00:41:00,
2013-02-03 15:46:00,39.6,33.3,29.06,South,188,0.0,0.0,78,0.00,,---,0.00,VWS V13.00,2013-02-04 00:46:00,
2013-02-03 15:51:00,39.6,33.3,29.06,South,188,0.0,0.0,78,0.00,,---,0.00,VWS V13.00,2013-02-04 00:51:00,
2013-02-03 15:56:00,39.2,32.9,29.06,SSW,206,0.0,0.0,78,0.00,,---,0.00,VWS V13.00,2013-02-04 00:56:00,
2013-02-03 16:01:00,39.2,32.9,29.06,South,178,0.0,0.0,78,0.00,,---,0.00,VWS V13.00,2013-02-04 01:01:00,
2013-02-03 16:06:00,39.0,33.1,29.06,South,178,0.0,0.0,79,0.00,,---,0.00,VWS V13.00,2013-02-04 01:06:00,
2013-02-03 16:11:00,39.0,33.1,29.06,SSW,210,0.0,0.0,79,0.00,,---,0.00,VWS V13.00,2013-02-04 01:11:00,
2013-02-03 16:16:00,38.8,32.9,29.06,SSW,210,0.0,0.0,79,0.00,,---,0.00,VWS V13.00,2013-02-04 01:16:00,
2013-02-03 16:21:00,38.8,32.9,29.06,SSW,209,0.0,0.0,79,0.00,,---,0.00,VWS V13.00,2013-02-04 01:21:00,
2013-02-03 16:26:00,38.8,33.2,29.06,South,181,0.0,0.0,80,0.00,,---,0.00,VWS V13.00,2013-02-04 01:26:00,
2013-02-03 16:31:00,38.8,33.2,29.06,South,181,0.0,0.0,80,0.00,,---,0.00,VWS V13.00,2013-02-04 01:31:00,
2013-02-03 16:36:00,38.8,33.2,29.06,SSW,196,0.0,0.0,80,0.00,,---,0.00,VWS V13.00,2013-02-04 01:36:00,
2013-02-03 16:41:00,38.8,33.2,29.06,SSW,196,0.0,0.0,80,0.00,,---,0.00,VWS V13.00,2013-02-04 01:41:00,
2013-02-03 16:46:00,38.8,33.2,29.06,South,185,0.0,0.0,80,0.00,,---,0.00,VWS V13.00,2013-02-04 01:46:00,
2013-02-03 16:51:00,38.5,32.9,29.06,South,185,0.0,0.0,80,0.00,,---,0.00,VWS V13.00,2013-02-04 01:51:00,
2013-02-03 16:56:00,38.5,32.9,29.06,South,185,0.0,0.0,80,0.00,,---,0.00,VWS V13.00,2013-02-04 01:56:00,
2013-02-03 17:01:00,38.7,33.0,29.06,SW,226,0.0,0.0,80,0.00,,---,0.00,VWS V13.00,2013-02-04 02:01:00,
2013-02-03 17:06:00,38.7,33.0,29.06,SSW,209,0.0,0.0,80,0.00,,---,0.00,VWS V13.00,2013-02-04 02:06:00,
2013-02-03 17:11:00,38.7,33.0,29.06,SW,223,0.0,0.0,80,0.00,,---,0.00,VWS V13.00,2013-02-04 02:11:00,
2013-02-03 17:16:00,38.5,33.5,29.06,SW,222,0.0,0.0,82,0.00,,---,0.00,VWS V13.00,2013-02-04 02:16:00,
2013-02-03 17:21:00,38.5,33.5,29.06,SW,222,0.0,0.0,82,0.00,,---,0.00,VWS V13.00,2013-02-04 02:21:00,
2013-02-03 17:26:00,38.5,33.8,29.06,SW,228,0.0,0.0,83,0.00,,---,0.00,VWS V13.00,2013-02-04 02:26:00,
2013-02-03 17:31:00,38.5,33.8,29.06,SW,226,0.0,3.1,83,0.00,,---,0.00,VWS V13.00,2013-02-04 02:31:00,
2013-02-03 17:36:00,38.5,33.8,29.06,SW,233,0.0,3.1,83,0.00,,---,0.00,VWS V13.00,2013-02-04 02:36:00,
2013-02-03 17:41:00,38.1,33.7,29.06,SW,233,0.0,0.0,84,0.00,,---,0.00,VWS V13.00,2013-02-04 02:41:00,
2013-02-03 17:46:00,38.1,33.7,29.06,SW,217,0.0,0.0,84,0.00,,---,0.00,VWS V13.00,2013-02-04 02:46:00,
2013-02-03 17:51:00,37.9,33.5,29.09,SSW,203,0.0,0.0,84,0.00,,---,0.00,VWS V13.00,2013-02-04 02:51:00,
2013-02-03 17:56:00,37.9,33.5,29.09,WSW,244,0.0,0.0,84,0.00,,---,0.00,VWS V13.00,2013-02-04 02:56:00,
2013-02-03 18:01:00,37.8,33.4,29.09,WSW,244,0.0,0.0,84,0.00,,---,0.00,VWS V13.00,2013-02-04 03:01:00,
2013-02-03 18:06:00,37.8,33.4,29.09,SW,233,0.0,0.0,84,0.00,,---,0.00,VWS V13.00,2013-02-04 03:06:00,
2013-02-03 18:11:00,37.8,33.4,29.09,South,181,0.0,0.0,84,0.00,,---,0.00,VWS V13.00,2013-02-04 03:11:00,
2013-02-03 18:16:00,37.6,33.2,29.09,SW,221,0.0,0.0,84,0.00,,---,0.00,VWS V13.00,2013-02-04 03:16:00,
2013-02-03 18:21:00,37.6,33.2,29.09,SW,221,0.0,0.0,84,0.00,,---,0.00,VWS V13.00,2013-02-04 03:21:00,
2013-02-03 18:26:00,37.6,33.5,29.09,SW,226,0.0,0.0,85,0.00,,---,0.00,VWS V13.00,2013-02-04 03:26:00,
2013-02-03 18:31:00,37.6,33.5,29.09,SSW,192,0.0,0.0,85,0.00,,---,0.00,VWS V13.00,2013-02-04 03:31:00,
2013-02-03 18:36:00,37.6,33.5,29.09,SW,234,0.0,0.0,85,0.00,,---,0.00,VWS V13.00,2013-02-04 03:36:00,
2013-02-03 18:41:00,37.6,33.5,29.09,South,182,0.0,0.0,85,0.00,,---,0.00,VWS V13.00,2013-02-04 03:41:00,
2013-02-03 18:46:00,37.6,33.8,29.09,South,182,0.0,0.0,86,0.00,,---,0.00,VWS V13.00,2013-02-04 03:46:00,
2013-02-03 18:51:00,37.4,33.6,29.09,SW,234,0.0,0.0,86,0.00,,---,0.00,VWS V13.00,2013-02-04 03:51:00,
2013-02-03 18:56:00,37.6,33.8,29.09,SW,220,0.0,0.0,86,0.00,,---,0.00,VWS V13.00,2013-02-04 03:56:00,
2013-02-03 19:01:00,37.6,34.1,29.09,SW,220,0.0,0.0,87,0.00,,---,0.00,VWS V13.00,2013-02-04 04:01:00,
2013-02-03 19:06:00,37.6,34.1,29.09,SW,217,0.0,0.0,87,0.00,,---,0.00,VWS V13.00,2013-02-04 04:06:00,
2013-02-03 19:11:00,37.6,34.3,29.09,SW,217,0.0,0.0,88,0.00,,---,0.00,VWS V13.00,2013-02-04 04:11:00,
2013-02-03 19:16:00,37.6,34.3,29.09,WSW,238,0.0,0.0,88,0.00,,---,0.00,VWS V13.00,2013-02-04 04:16:00,
2013-02-03 19:21:00,37.4,34.2,29.09,SSW,196,0.0,0.0,88,0.00,,---,0.00,VWS V13.00,2013-02-04 04:21:00,
2013-02-03 19:26:00,37.4,34.2,29.09,SSW,209,0.0,0.0,88,0.00,,---,0.00,VWS V13.00,2013-02-04 04:26:00,
2013-02-03 19:31:00,37.4,34.2,29.09,South,176,0.0,0.0,88,0.00,,---,0.00,VWS V13.00,2013-02-04 04:31:00,
2013-02-03 19:36:00,37.4,34.2,29.09,South,176,0.0,0.0,88,0.00,,---,0.00,VWS V13.00,2013-02-04 04:36:00,
2013-02-03 19:41:00,37.4,34.2,29.09,South,176,0.0,0.0,88,0.00,,---,0.00,VWS V13.00,2013-02-04 04:41:00,
2013-02-03 19:46:00,37.2,34.0,29.09,SSW,195,0.0,0.0,88,0.00,,---,0.00,VWS V13.00,2013-02-04 04:46:00,
2013-02-03 19:51:00,37.2,34.0,29.09,SSW,203,0.0,0.0,88,0.00,,---,0.00,VWS V13.00,2013-02-04 04:51:00,
2013-02-03 19:56:00,37.2,34.0,29.09,SW,234,0.0,0.0,88,0.00,,---,0.00,VWS V13.00,2013-02-04 04:56:00,
2013-02-03 20:00:00,37.2,34.0,29.09,SW,234,0.0,0.0,88,0.00,,---,0.00,VWS V13.00,2013-02-04 05:00:00,
2013-02-03 20:01:00,37.2,34.0,29.09,SW,234,0.0,0.0,88,0.00,,---,0.00,VWS V13.00,2013-02-04 05:01:00,
2013-02-03 20:03:00,37.2,34.0,29.09,SW,234,0.0,0.0,88,0.00,,---,0.00,VWS V13.00,2013-02-04 05:03:00,
2013-02-03 20:08:00,37.2,34.0,29.09,SW,234,0.0,0.0,88,0.00,,---,0.00,VWS V13.00,2013-02-04 05:08:00,
2013-02-03 20:13:00,37.2,34.0,29.09,SSW,212,0.0,0.0,88,0.00,,---,0.00,VWS V13.00,2013-02-04 05:13:00,
2013-02-03 20:18:00,37.2,34.0,29.09,SSW,212,0.0,0.0,88,0.00,,---,0.00,VWS V13.00,2013-02-04 05:18:00,
2013-02-03 20:23:00,37.2,34.0,29.09,SW,229,0.0,0.0,88,0.00,,---,0.00,VWS V13.00,2013-02-04 05:23:00,
2013-02-03 20:28:00,37.2,34.3,29.09,SW,226,0.0,0.0,89,0.00,,---,0.00,VWS V13.00,2013-02-04 05:28:00,
2013-02-03 20:33:00,37.2,34.3,29.09,SSW,209,0.0,0.0,89,0.00,,---,0.00,VWS V13.00,2013-02-04 05:33:00,
2013-02-03 20:38:00,37.0,34.1,29.09,SW,231,0.0,0.0,89,0.00,,---,0.00,VWS V13.00,2013-02-04 05:38:00,
2013-02-03 20:43:00,37.0,34.1,29.09,SW,221,0.0,0.0,89,0.00,,---,0.00,VWS V13.00,2013-02-04 05:43:00,
2013-02-03 20:48:00,37.0,34.1,29.09,SSW,213,0.0,0.0,89,0.00,,---,0.00,VWS V13.00,2013-02-04 05:48:00,
2013-02-03 20:53:00,37.0,34.1,29.09,SW,235,0.0,0.0,89,0.00,,---,0.00,VWS V13.00,2013-02-04 05:53:00,
2013-02-03 20:58:00,37.0,34.1,29.09,WSW,248,0.0,0.0,89,0.00,,---,0.00,VWS V13.00,2013-02-04 05:58:00,
2013-02-03 21:03:00,37.0,34.1,29.09,WSW,243,0.0,0.0,89,0.00,,---,0.00,VWS V13.00,2013-02-04 06:03:00,
2013-02-03 21:08:00,37.0,34.1,29.09,WSW,243,0.0,0.0,89,0.00,,---,0.00,VWS V13.00,2013-02-04 06:08:00,
2013-02-03 21:13:00,37.0,34.1,29.09,SW,234,0.0,0.0,89,0.00,,---,0.00,VWS V13.00,2013-02-04 06:13:00,
2013-02-03 21:18:00,36.9,33.9,29.09,WSW,241,0.0,0.0,89,0.00,,---,0.00,VWS V13.00,2013-02-04 06:18:00,
2013-02-03 21:23:00,36.9,33.9,29.09,WSW,241,0.0,0.0,89,0.00,,---,0.00,VWS V13.00,2013-02-04 06:23:00,
2013-02-03 21:28:00,36.9,33.9,29.09,WSW,246,0.0,0.0,89,0.00,,---,0.00,VWS V13.00,2013-02-04 06:28:00,
2013-02-03 21:33:00,37.0,34.4,29.09,SW,216,0.0,0.0,90,0.00,,---,0.00,VWS V13.00,2013-02-04 06:33:00,
2013-02-03 21:38:00,37.0,34.4,29.09,SSW,195,0.0,0.0,90,0.00,,---,0.00,VWS V13.00,2013-02-04 06:38:00,
2013-02-03 21:43:00,37.0,34.4,29.12,South,189,0.0,0.0,90,0.00,,---,0.00,VWS V13.00,2013-02-04 06:43:00,
2013-02-03 21:48:00,37.0,34.4,29.12,South,189,0.0,0.0,90,0.00,,---,0.00,VWS V13.00,2013-02-04 06:48:00,
2013-02-03 21:53:00,37.0,34.4,29.12,South,181,0.0,0.0,90,0.00,,---,0.00,VWS V13.00,2013-02-04 06:53:00,
2013-02-03 21:58:00,37.0,34.4,29.12,South,189,0.0,0.0,90,0.00,,---,0.00,VWS V13.00,2013-02-04 06:58:00,
2013-02-03 22:03:00,37.0,34.4,29.12,South,189,0.0,0.0,90,0.00,,---,0.00,VWS V13.00,2013-02-04 07:03:00,
2013-02-03 22:08:00,37.0,34.4,29.12,SSW,206,0.0,0.0,90,0.00,,---,0.00,VWS V13.00,2013-02-04 07:08:00,
2013-02-03 22:13:00,37.0,34.4,29.12,SW,229,0.0,0.0,90,0.00,,---,0.00,VWS V13.00,2013-02-04 07:13:00,
2013-02-03 22:18:00,37.0,34.4,29.12,SSW,209,0.0,0.0,90,0.00,,---,0.00,VWS V13.00,2013-02-04 07:18:00,
2013-02-03 22:23:00,37.0,34.4,29.12,West,274,0.0,0.0,90,0.00,,---,0.00,VWS V13.00,2013-02-04 07:23:00,
2013-02-03 22:28:00,37.0,34.4,29.12,West,274,0.0,0.0,90,0.00,,---,0.00,VWS V13.00,2013-02-04 07:28:00,
2013-02-03 22:33:00,36.9,34.2,29.12,SW,222,0.0,0.0,90,0.00,,---,0.00,VWS V13.00,2013-02-04 07:33:00,
2013-02-03 22:38:00,36.9,34.2,29.12,SSW,199,0.0,0.0,90,0.00,,---,0.00,VWS V13.00,2013-02-04 07:38:00,
2013-02-03 22:43:00,36.9,34.2,29.12,South,188,0.0,0.0,90,0.00,,---,0.00,VWS V13.00,2013-02-04 07:43:00,
2013-02-03 22:48:00,37.0,34.4,29.12,South,177,0.0,0.0,90,0.00,,---,0.00,VWS V13.00,2013-02-04 07:48:00,
2013-02-03 22:53:00,37.0,34.4,29.12,South,177,0.0,0.0,90,0.00,,---,0.00,VWS V13.00,2013-02-04 07:53:00,
2013-02-03 22:58:00,36.9,34.2,29.12,South,187,0.0,0.0,90,0.00,,---,0.00,VWS V13.00,2013-02-04 07:58:00,
2013-02-03 23:03:00,36.9,34.2,29.12,SSW,209,0.0,0.0,90,0.00,,---,0.00,VWS V13.00,2013-02-04 08:03:00,
2013-02-03 23:08:00,36.9,34.2,29.12,South,183,0.0,0.0,90,0.00,,---,0.00,VWS V13.00,2013-02-04 08:08:00,
2013-02-03 23:13:00,36.9,34.2,29.12,South,184,0.0,0.0,90,0.00,,---,0.00,VWS V13.00,2013-02-04 08:13:00,
2013-02-03 23:18:00,36.9,34.2,29.12,South,184,0.0,0.0,90,0.00,,---,0.00,VWS V13.00,2013-02-04 08:18:00,
2013-02-03 23:23:00,36.9,34.2,29.12,South,184,0.0,0.0,90,0.00,,---,0.00,VWS V13.00,2013-02-04 08:23:00,
2013-02-03 23:28:00,36.9,34.2,29.15,South,184,0.0,0.0,90,0.00,,---,0.00,VWS V13.00,2013-02-04 08:28:00,
2013-02-03 23:33:00,36.9,34.2,29.15,South,184,0.0,0.0,90,0.00,,---,0.00,VWS V13.00,2013-02-04 08:33:00,
2013-02-03 23:38:00,36.9,34.2,29.15,SSW,201,0.0,0.0,90,0.00,,---,0.00,VWS V13.00,2013-02-04 08:38:00,
2013-02-03 23:43:00,36.9,34.2,29.15,SSW,207,0.0,0.0,90,0.00,,---,0.00,VWS V13.00,2013-02-04 08:43:00,
2013-02-03 23:48:00,37.0,34.4,29.15,SW,230,0.0,0.0,90,0.00,,---,0.00,VWS V13.00,2013-02-04 08:48:00,
2013-02-03 23:53:00,37.0,34.4,29.15,SE,141,0.0,0.0,90,0.00,,---,0.00,VWS V13.00,2013-02-04 08:53:00,
2013-02-03 23:58:00,37.0,34.4,29.15,South,184,0.0,0.0,90,0.00,,---,0.00,VWS V13.00,2013-02-04 08:58:00,